When you browse on this site, cookies collect data to enhance your experience and personalize the content and advertising you see.
Visit our Privacy Policy to learn more. By continuing to use the site, you agree to this use of cookies and data.
  • In Austria
  • List of Countries
  • For 7 days
  • Water Temperature
  • Satellite Maps
  • Weather Map
  • News
  • Weather Widgets
  • user-avatar
    Login

    Hourly Weather Bregenz

    Today, 25 March, Monday

    Time Temperature Precipitation Wind Pressure Humidity
    00:00 +4°C° 0.1 mm 1 mps 648 mmHg 94%
    01:00 +3°C° 0 mm 0 mps 647 mmHg 97%
    02:00 +4°C° 0.2 mm 1 mps 647 mmHg 97%
    03:00 +4°C° 0.2 mm 1 mps 647 mmHg 97%
    04:00 +4°C° 0.2 mm 1 mps 647 mmHg 97%
    05:00 +3°C° 0.3 mm 1 mps 647 mmHg 97%
    06:00 +2°C° 0.3 mm 2 mps 647 mmHg 96%
    07:00 +2°C° 0 mm 2 mps 647 mmHg 97%
    08:00 +2°C° 0.2 mm 2 mps 646 mmHg 94%
    09:00 +2°C° 0.2 mm 2 mps 646 mmHg 91%
    10:00 +2°C° 0.2 mm 2 mps 646 mmHg 89%
    11:00 +1°C° 0.2 mm 3 mps 646 mmHg 84%
    12:00 +1°C° 0.2 mm 3 mps 646 mmHg 79%
    13:00 +2°C° 0.2 mm 3 mps 646 mmHg 74%
    14:00 +1°C° 0.5 mm 3 mps 646 mmHg 75%
    15:00 -1°C° 0.5 mm 4 mps 646 mmHg 76%
    16:00 -1°C° 0.5 mm 4 mps 645 mmHg 77%
    17:00 -1°C° 0.7 mm 3 mps 646 mmHg 80%
    18:00 -2°C° 0.7 mm 3 mps 646 mmHg 82%
    19:00 -3°C° 0.7 mm 2 mps 646 mmHg 85%
    20:00 -4°C° 0.5 mm 2 mps 646 mmHg 87%
    21:00 -2°C° 0.5 mm 1 mps 647 mmHg 89%
    22:00 -3°C° 0.5 mm 1 mps 647 mmHg 90%
    23:00 -3°C° 0.2 mm 1 mps 647 mmHg 92%

    Tomorrow, 26 March, Tuesday

    Time Temperature Precipitation Wind Pressure Humidity
    00:00 -3°C° 0.2 mm 1 mps 648 mmHg 93%
    01:00 -4°C° 0.2 mm 1 mps 648 mmHg 94%
    02:00 -4°C° 0.1 mm 1 mps 648 mmHg 95%
    03:00 -4°C° 0.1 mm 1 mps 648 mmHg 95%
    04:00 -4°C° 0.1 mm 1 mps 648 mmHg 96%
    05:00 -4°C° 0 mm 1 mps 649 mmHg 96%
    06:00 -4°C° 0 mm 1 mps 649 mmHg 95%
    07:00 -4°C° 0 mm 1 mps 649 mmHg 95%
    08:00 -3°C° 0 mm 1 mps 650 mmHg 89%
    09:00 -2°C° 0 mm 1 mps 650 mmHg 83%
    10:00 -3°C° 0 mm 2 mps 650 mmHg 77%
    11:00 -2°C° 0 mm 2 mps 650 mmHg 76%
    12:00 -2°C° 0 mm 2 mps 650 mmHg 74%
    13:00 -1°C° 0 mm 2 mps 651 mmHg 73%
    14:00 -1°C° 0 mm 2 mps 650 mmHg 72%
    15:00 -1°C° 0 mm 2 mps 650 mmHg 72%
    16:00 +1°C° 0 mm 2 mps 650 mmHg 71%
    17:00 -2°C° 0 mm 2 mps 650 mmHg 75%
    18:00 -1°C° 0 mm 1 mps 650 mmHg 80%
    19:00 -2°C° 0 mm 1 mps 650 mmHg 84%
    20:00 -2°C° 0 mm 1 mps 651 mmHg 86%
    21:00 -3°C° 0 mm 1 mps 651 mmHg 89%
    22:00 -4°C° 0 mm 1 mps 651 mmHg 92%
    23:00 -4°C° 0 mm 1 mps 651 mmHg 92%

    Day after tomorrow, 27 March, Wednesday

    Time Temperature Precipitation Wind Pressure Humidity
    00:00 -4°C° 0 mm 1 mps 651 mmHg 92%
    01:00 -4°C° 0 mm 1 mps 651 mmHg 92%
    02:00 -6°C° 0 mm 1 mps 651 mmHg 91%
    03:00 -6°C° 0 mm 1 mps 650 mmHg 90%
    04:00 -7°C° 0 mm 1 mps 650 mmHg 90%
    05:00 -7°C° 0 mm 1 mps 650 mmHg 88%
    06:00 -6°C° 0 mm 1 mps 650 mmHg 86%
    07:00 -6°C° 0 mm 0 mps 650 mmHg 85%
    08:00 -3°C° 0 mm 1 mps 651 mmHg 79%
    09:00 -1°C° 0 mm 1 mps 651 mmHg 73%
    10:00 +1°C° 0 mm 1 mps 652 mmHg 67%
    11:00 +1°C° 0 mm 2 mps 652 mmHg 66%
    12:00 +2°C° 0 mm 2 mps 652 mmHg 65%
    13:00 +2°C° 0 mm 3 mps 652 mmHg 63%
    14:00 +2°C° 0 mm 3 mps 652 mmHg 65%
    15:00 +2°C° 0 mm 3 mps 652 mmHg 66%
    16:00 +2°C° 0 mm 3 mps 652 mmHg 67%
    17:00 +2°C° 0 mm 2 mps 652 mmHg 73%
    18:00 +1°C° 0 mm 2 mps 652 mmHg 78%
    19:00 -2°C° 0 mm 2 mps 652 mmHg 84%
    20:00 -3°C° 0 mm 2 mps 652 mmHg 87%
    21:00 -2°C° 0 mm 1 mps 652 mmHg 90%
    22:00 -3°C° 0 mm 1 mps 652 mmHg 93%
    23:00 -3°C° 0 mm 1 mps 652 mmHg 92%

    28 March, Thursday

    Time Temperature Precipitation Wind Pressure Humidity
    00:00 -3°C° 0 mm 1 mps 652 mmHg 91%
    01:00 -4°C° 0 mm 1 mps 652 mmHg 91%
    02:00 -4°C° 0 mm 1 mps 652 mmHg 89%
    03:00 -4°C° 0 mm 1 mps 652 mmHg 88%
    04:00 -4°C° 0 mm 1 mps 652 mmHg 86%
    05:00 -4°C° 0 mm 1 mps 652 mmHg 84%
    06:00 -4°C° 0 mm 1 mps 652 mmHg 82%
    07:00 -3°C° 0 mm 1 mps 652 mmHg 80%
    08:00 -1°C° 0 mm 1 mps 653 mmHg 74%
    09:00 +1°C° 0 mm 1 mps 653 mmHg 68%
    10:00 +4°C° 0 mm 1 mps 654 mmHg 62%
    11:00 +4°C° 0 mm 2 mps 654 mmHg 61%
    12:00 +5°C° 0 mm 2 mps 654 mmHg 60%
    13:00 +6°C° 0 mm 2 mps 654 mmHg 59%
    14:00 +6°C° 0 mm 2 mps 654 mmHg 61%
    15:00 +5°C° 0 mm 3 mps 654 mmHg 63%
    16:00 +5°C° 0 mm 3 mps 654 mmHg 65%
    17:00 +3°C° 0 mm 3 mps 654 mmHg 74%
    18:00 +2°C° 0 mm 2 mps 653 mmHg 83%
    19:00 +1°C° 0 mm 2 mps 653 mmHg 92%
    20:00 -1°C° 0 mm 2 mps 653 mmHg 92%
    21:00 -2°C° 0 mm 2 mps 653 mmHg 93%
    22:00 0°C° 0 mm 1 mps 654 mmHg 93%
    23:00 -1°C° 0 mm 1 mps 653 mmHg 92%

    29 March, Friday

    Time Temperature Precipitation Wind Pressure Humidity
    00:00 -1°C° 0 mm 1 mps 653 mmHg 90%
    01:00 -2°C° 0 mm 1 mps 653 mmHg 89%
    02:00 -2°C° 0 mm 1 mps 653 mmHg 87%
    03:00 -2°C° 0 mm 1 mps 653 mmHg 85%
    04:00 -3°C° 0 mm 1 mps 652 mmHg 84%
    05:00 -2°C° 0 mm 1 mps 652 mmHg 82%
    06:00 -2°C° 0 mm 1 mps 653 mmHg 80%
    07:00 -2°C° 0 mm 1 mps 653 mmHg 78%
    08:00 +1°C° 0 mm 1 mps 653 mmHg 72%
    09:00 +4°C° 0 mm 1 mps 654 mmHg 65%
    10:00 +6°C° 0 mm 1 mps 655 mmHg 58%
    11:00 +7°C° 0 mm 1 mps 655 mmHg 57%
    12:00 +8°C° 0 mm 1 mps 655 mmHg 55%
    13:00 +9°C° 0 mm 1 mps 655 mmHg 53%
    14:00 +9°C° 0 mm 1 mps 654 mmHg 54%
    15:00 +9°C° 0 mm 1 mps 654 mmHg 55%
    16:00 +9°C° 0 mm 1 mps 654 mmHg 56%
    17:00 +7°C° 0 mm 1 mps 653 mmHg 66%
    18:00 +4°C° 0 mm 1 mps 653 mmHg 76%
    19:00 +1°C° 0 mm 0 mps 652 mmHg 86%
    20:00 +2°C° 0 mm 1 mps 653 mmHg 85%
    21:00 +1°C° 0 mm 1 mps 653 mmHg 85%
    22:00 -1°C° 0 mm 2 mps 653 mmHg 85%
    23:00 -1°C° 0 mm 2 mps 653 mmHg 83%

    30 March, Saturday

    Time Temperature Precipitation Wind Pressure Humidity
    00:00 -2°C° 0 mm 2 mps 652 mmHg 82%
    01:00 -2°C° 0 mm 2 mps 652 mmHg 81%
    02:00 -2°C° 0 mm 2 mps 652 mmHg 80%
    03:00 -2°C° 0 mm 2 mps 652 mmHg 79%
    04:00 -3°C° 0 mm 2 mps 652 mmHg 78%
    05:00 -2°C° 0 mm 2 mps 652 mmHg 75%
    06:00 -2°C° 0 mm 2 mps 652 mmHg 72%
    07:00 -2°C° 0 mm 2 mps 652 mmHg 70%
    08:00 +3°C° 0 mm 1 mps 652 mmHg 64%
    09:00 +6°C° 0 mm 1 mps 653 mmHg 57%
    10:00 +8°C° 0 mm 0 mps 653 mmHg 51%
    11:00 +10°C° 0 mm 1 mps 653 mmHg 51%
    12:00 +11°C° 0 mm 1 mps 653 mmHg 51%
    13:00 +11°C° 0 mm 1 mps 652 mmHg 50%
    14:00 +11°C° 0 mm 1 mps 652 mmHg 53%
    15:00 +11°C° 0 mm 1 mps 651 mmHg 55%
    16:00 +11°C° 0 mm 1 mps 651 mmHg 57%
    17:00 +8°C° 0 mm 1 mps 650 mmHg 67%
    18:00 +6°C° 0 mm 1 mps 649 mmHg 76%
    19:00 +4°C° 0 mm 1 mps 649 mmHg 86%
    20:00 +3°C° 0 mm 1 mps 649 mmHg 86%
    21:00 +3°C° 0 mm 1 mps 649 mmHg 86%
    22:00 +3°C° 0 mm 1 mps 649 mmHg 87%
    23:00 +2°C° 0 mm 1 mps 649 mmHg 86%
    Show more